STARLINK-30981, 58494

Orbit data source: Space-Track

STARLINK-30981, 58494 is a payload satellite owned by SpaceX/Seattle (US) in LEO that was launched on Sun, 03 Dec 2023 UTC via an FALCON 9 launch vehicle from the Air Force Eastern Test Range (AFETR). Payload-class satellites include a variety of spacecraft equipped with specific instruments for various scientific and technological missions. These include communications satellites like Starlink; space stations such as the ISS; scientific satellites like the Hubble; Earth observation satellites from companies like Planet Labs, Umbra, and HawkEye 360; GPS; miniature CubeSats for education and research; and military/defense satellites.

Loading next visibility...
Identifier
58494, 2023-186X
Orbit
LEO
Country
Flag of USUS
Related business
Manufacturer
SpaceX/Seattle
Mission
Operational Commercial Communications
Bus & Motor
STARLINK V2M, Unknown motor
Mass
730 kg wet, ~700 kg dry
Launch date (UTC)
2023-12-03 (3 years ago)
Launch vehicle
FALCON 9
Launch site
Air Force Eastern Test Range (AFETR)
Object type
Payload
Rocket body
Debris
Shape & HBR
Box + 2 Pan, 17.7 m
Radar Cross Section
33.884 m², Large (>1 m²)

Expand to show TLE details & history
Last TLE update: 2 days ago

TLE from 2 days ago
0 STARLINK-30981
1 58494U 23186X   26171.43915336  .00000990  00000-0  45489-4 0  9993
2 58494  43.0010 203.0910 0001503 274.8936  85.1744 15.27581188141600
Epoch: 2026-06-20T10:32Z
TLE epoch observation values (Epoch: 2026-06-20T10:32:22.850Z)
Latitude
-0.00001°
Longitude
136.34202°
Altitude
482.734 km
Speed
7.626 km/s
True Right ascension
13h 32m 21s
True Declination
0° 00' 00"
Sunlit
Object was in full shadow at epoch
Visualization orbit readout
Latitude
Unknown
Longitude
Unknown
Altitude
Unknown
Speed
Unknown
Apparent Right ascension
Unknown
Apparent Declination
Unknown
Sunlit
N/A
Visualization observer readout
Local Sidereal Time
21:28:39
Azimuth
Unknown
Elevation
Unknown
Doppler factor
Unknown
Orbital elements
Apogee altitude
486.022 km
Perigee altitude
483.959 km
Semi-major axis
6,863.128 km
Eccentricity
0.00015
Inclination
43.001°
RAAN
203.091°
Arg. of periapsis
274.8936°
True anomaly
85.19156°
Mean anomaly
85.1744°
Eccentric anomaly
85.18298°
Mean motion
3.81733 °/min
Orbital period
94.31 mins
BSTAR
0.000045489
Loading maneuver chart data...
Computing Atmospheric mass density...
Loading historical data...
Loading historical data...
Loading historical data...
Loading historical data...
Loading historical data...
Loading historical data...
Loading historical data...

Documentation

Showing up to 5 results
|